GW1452 Weather Reports


time (UTC)temp
C
wind
direction
speed
KPH
gust
KPH
rain 1hr
cm
rain 24hr
cm
rain mn
cm
humidity
%
barometer
mb
20260507160047 14 81 3.2 12.9 0.00 0.00 0.00 71 1020.0
20260507154549 13 34 4.8 16.1 0.00 0.00 0.00 71 1020.0
20260507153052 13 50 6.4 19.3 0.00 0.00 0.00 71 1020.0
20260507151550 13 346 4.8 16.1 0.00 0.00 0.00 73 1020.4
20260507150049 12 31 3.2 19.3 0.00 0.00 0.00 74 1020.6
20260507144553 12 50 4.8 16.1 0.00 0.00 0.00 74 1020.1
20260507143050 12 82 3.2 11.3 0.00 0.00 0.00 76 1020.2
20260507141552 12 355 1.6 14.5 0.00 0.00 0.00 78 1020.4
20260507140100 12 60 3.2 11.3 0.00 0.00 0.00 79 1020.4
20260507134557 12 65 8.0 17.7 0.00 0.00 0.00 80 1020.8
20260507133055 12 60 1.6 11.3 0.00 0.00 0.00 81 1020.8
20260507131601 12 0 1.6 12.9 0.00 0.00 0.00 81 1020.5
20260507130107 12 85 3.2 11.3 0.00 0.00 0.00 81 1020.5
20260507124555 11 0 1.6 11.3 0.00 0.00 0.00 83 1020.4
20260507123054 11 61 0.0 9.7 0.00 0.00 0.00 83 1020.5
20260507121605 11 78 4.8 16.1 0.00 0.00 0.00 82 1020.0
20260507120055 12 91 1.6 9.7 0.00 0.00 0.00 81 1020.1
20260507114609 12 48 4.8 12.9 0.00 0.00 0.00 80 1020.1
20260507113052 12 65 1.6 16.1 0.00 0.00 0.00 80 1019.7
20260507111556 12 0 1.6 8.0 0.00 0.00 0.00 81 1019.6
20260507110055 12 0 0.0 9.7 0.00 0.00 0.00 81 1019.5
20260507104552 12 150 1.6 12.9 0.00 0.00 0.00 81 1019.2
20260507103051 12 20 1.6 17.7 0.00 0.00 0.00 81 1019.2
20260507101603 12 57 1.6 17.7 0.00 0.00 0.00 80 1019.3
20260507100055 13 44 0.0 14.5 0.00 0.00 0.00 79 1019.7
20260507094551 13 46 1.6 8.0 0.00 0.00 0.00 79 1019.5
20260507093056 13 55 1.6 12.9 0.00 0.00 0.00 79 1019.2
20260507091559 13 70 3.2 12.9 0.00 0.00 0.00 78 1019.1
20260507090057 13 28 4.8 14.5 0.00 0.00 0.00 78 1019.0
20260507084556 13 81 3.2 14.5 0.00 0.00 0.00 77 1018.8
20260507083053 13 0 3.2 12.9 0.00 0.00 0.00 77 1018.7
20260507081555 13 56 1.6 6.4 0.00 0.00 0.00 77 1018.6
20260507080057 13 0 0.0 4.8 0.00 0.00 0.00 78 1018.5
20260507074609 13 49 0.0 6.4 0.00 0.00 0.00 77 1018.3
20260507073057 13 0 1.6 8.0 0.00 0.00 0.00 77 1017.9
20260507071554 13 57 1.6 6.4 0.00 0.00 0.00 76 1017.8
20260507070058 13 53 3.2 12.9 0.00 0.00 0.00 76 1017.8
20260507064557 14 5 1.6 4.8 0.00 0.00 0.00 76 1017.6
20260507063054 14 0 1.6 6.4 0.00 0.00 0.00 77 1017.2
20260507061601 14 51 1.6 11.3 0.00 0.00 0.00 78 1017.1
20260507060059 13 0 3.2 11.3 0.00 0.00 0.00 77 1017.1
20260507054636 14 57 1.6 8.0 0.00 0.00 0.00 77 1017.0
20260507053055 14 57 3.2 11.3 0.00 0.00 0.00 76 1017.2
20260507051552 15 49 3.2 14.5 0.00 0.00 0.00 76 1017.1
20260507050057 15 56 3.2 12.9 0.00 0.00 0.00 76 1016.8
20260507044602 15 61 4.8 12.9 0.00 0.00 0.00 74 1016.7
20260507043103 15 57 6.4 17.7 0.00 0.00 0.00 76 1016.5
20260507041602 16 44 3.2 8.0 0.00 0.00 0.00 78 1016.5
20260507040051 16 81 3.2 9.7 0.00 0.00 0.00 77 1016.2
20260507034600 16 71 3.2 8.0 0.00 0.00 0.00 76 1015.7
20260507033101 16 61 1.6 6.4 0.00 0.00 0.00 75 1015.4
20260507031605 17 0 0.0 6.4 0.00 0.00 0.00 74 1015.2
20260507030057 17 53 3.2 8.0 0.00 0.00 0.00 73 1015.0
20260507024553 17 67 1.6 6.4 0.00 0.00 0.00 71 1014.8
20260507023103 17 56 1.6 9.7 0.00 0.00 0.00 70 1014.7
20260507021554 17 78 3.2 6.4 0.00 0.00 0.00 69 1014.4
20260507020056 18 93 1.6 6.4 0.00 0.00 0.00 67 1014.4
20260507014605 19 69 3.2 8.0 0.00 0.00 0.00 64 1014.1
20260507013049 20 57 3.2 8.0 0.00 0.00 0.00 60 1014.0
20260507011552 20 67 3.2 11.3 0.00 0.00 0.00 60 1014.0
20260507010054 20 0 3.2 16.1 0.00 0.00 0.00 58 1013.8
20260507004555 21 67 0.0 16.1 0.00 0.00 0.00 59 1013.7
20260507003053 20 65 4.8 16.1 0.00 0.00 0.00 59 1013.5
20260507001603 21 63 4.8 12.9 0.00 0.00 0.00 58 1013.4
20260507000057 21 62 3.2 14.5 0.00 0.00 0.00 57 1013.5
20260506234550 21 63 3.2 9.7 0.00 0.00 0.00 59 1013.5
20260506233108 21 69 1.6 11.3 0.00 0.00 0.00 59 1013.4
20260506231556 21 24 1.6 12.9 0.00 0.00 0.00 57 1013.4
20260506230053 21 41 1.6 9.7 0.00 0.00 0.00 57 1013.3
20260506224550 21 121 0.0 0.0 0.00 0.00 0.00 58 1013.2
20260506223053 21 0 0.0 4.8 0.00 0.00 0.00 58 1013.1
20260506221559 21 63 3.2 8.0 0.00 0.00 0.00 57 1013.2
20260506220048 21 0 0.0 3.2 0.00 0.00 0.00 58 1013.1
20260506214552 21 0 0.0 0.0 0.00 0.00 0.00 56 1013.0
20260506213102 21 49 0.0 6.4 0.00 0.00 0.00 59 1013.4
20260506211550 21 0 0.0 0.0 0.00 0.00 0.00 58 1013.3
20260506210054 21 0 0.0 11.3 0.00 0.00 0.00 59 1013.2
20260506204551 20 0 0.0 0.0 0.00 0.00 0.00 62 1013.6
20260506203046 20 0 0.0 0.0 0.00 0.00 0.00 63 1013.9
20260506201547 19 0 0.0 0.0 0.00 0.00 0.00 64 1014.4
20260506200051 18 0 0.0 9.7 0.00 0.00 0.00 65 1014.7
20260506194616 18 71 3.2 14.5 0.00 0.00 0.00 68 1014.8
20260506193102 17 70 1.6 9.7 0.00 0.00 0.00 70 1014.9
20260506191554 16 57 3.2 14.5 0.00 0.00 0.00 70 1015.0
20260506190052 16 0 3.2 14.5 0.00 0.00 0.00 72 1015.2
20260506184547 16 96 3.2 11.3 0.00 0.00 0.00 71 1015.2
20260506183054 16 68 1.6 14.5 0.00 0.00 0.00 72 1015.5
20260506181549 16 50 1.6 14.5 0.00 0.00 0.00 73 1015.7
20260506174555 16 35 3.2 16.1 0.00 0.00 0.00 71 1015.8
20260506173057 16 54 1.6 11.3 0.00 0.00 0.00 71 1015.9
20260506171553 16 13 1.6 11.3 0.00 0.00 0.00 70 1015.9
20260506170105 16 78 1.6 14.5 0.00 0.00 0.00 72 1015.7
20260506164557 15 17 0.0 8.0 0.00 0.00 0.00 74 1015.7
20260506163112 15 0 1.6 9.7 0.00 0.00 0.00 76 1015.5
20260506161551 14 5 1.6 8.0 0.00 0.00 0.00 76 1015.4